Regional Weather Roundup
Issued by NWS State College, PA

Home | Current Version | Previous Version | Text Only | Print | Product List | Glossary Off
Versions: 1 2 3 4 5 6 7 8 9 10 11 12 13 14 15 16 17 18 19 20 21 22 23 24 25 26 27 28 29 30 31 32 33 34 35 36 37 38 39 40 41 42 43 44 45 46 47 48 49 50

000
ASUS41 KCTP 241503
RWRCTP

REGIONAL WEATHER ROUNDUP
NATIONAL WEATHER SERVICE STATE COLLEGE PA
1000 AM EST TUE JAN 24 2017

Note: "fair" indicates few or no clouds below 12,000 feet with no
significant weather and/or obstructions to visibility.

* = STATION THAT DOES NOT REPORT PRECIPITATION /E.G. RAIN...SNOW...ETC/
    THUNDER OR FOG.

PAZ002>004-007>009-013>016-020>023-029>032-241600-
WESTERN PENNSYLVANIA

CITY           SKY/WX    TMP DP  RH WIND       PRES   REMARKS
ERIE           CLOUDY    34  31  88 N9        29.71R
MEADVILLE      CLOUDY    32  29  88 NW9       29.66R
FRANKLIN*        N/A     32  28  86 NW7       29.65R
NEW CASTLE     CLOUDY    35  33  92 NW10      29.70R
BEAVER COUNTY  LGT RAIN  36  34  93 NW9G16    29.67R
BUTLER*        CLOUDY    37  36  93 NW7       29.67R
PITTSBURGH INT LGT RAIN  39  38  96 NW10      29.66R
PITTSBURGH     LGT RAIN  37  34  89 NW9G20    29.64R
INDIANA*       CLOUDY    34  34 100 W5        29.64R FOG
LATROBE        LGT RAIN  32  32 100 SW7       29.65R FOG
WASHINGTON CO* CLOUDY    37  36  93 W10       29.68R
$$

PAZ004>006-010>012-017>019-024>028-033>037-041-042-045-046-049>053-241600-
CENTRAL PENNSYLVANIA

CITY           SKY/WX    TMP DP  RH WIND       PRES   REMARKS
BRADFORD       LGT SNOW  30  29  96 N8        29.57S VSB 1
DUBOIS         CLOUDY    33  30  88 NW7       29.57R
CLEARFIELD     MIX PCPN  34  32  92 NW7       29.57S
JOHNSTOWN      LGT SNOW  32  32 100 W16       29.54S FOG
ALTOONA        FLURRIES  35  33  92 NW7       29.56S
STATE COLLEGE  LGT SNOW  34  32  93 CALM      29.56S
WILLIAMSPORT   LGT SNOW  34  32  92 W9        29.55S VSB 1
SELINSGROVE    CLOUDY    37  34  89 NW6       29.55R
FT INDIANTOWN  CLOUDY    38  36  92 N9G18     29.51R
CAPITAL CITY   CLOUDY    39  32  76 N14G20    29.53R
HARRISBURG     CLOUDY    39  35  86 N13       29.52R
YORK           CLOUDY    39  36  89 NW10      29.51S
$$

PAZ038>040-043-044-047-048-054-055-060>062-067>071-241600-
EASTERN PENNSYLVANIA

CITY           SKY/WX    TMP DP  RH WIND       PRES   REMARKS
SCRANTON       CLOUDY    36  31  82 N10       29.49R
MOUNT POCONO   CLOUDY    31  28  89 N13       29.41R
ALLENTOWN      CLOUDY    40  33  76 NW12      29.46R
QUAKERTOWN*    CLOUDY    37  36  93 N10       29.45R
READING        CLOUDY    40  36  86 NW12      29.48R
LANCASTER      CLOUDY    40  35  83 NW13      29.49R
COATESVILLE    CLOUDY    37  36  93 N16       29.46S
POTTSTOWN      CLOUDY    38  35  89 NW13G20   29.46S
BLUE BELL      CLOUDY    36  36 100 N8        29.42S
DOYLESTOWN     LGT RAIN  38  36  92 N14G21    29.41S
WILLOW GROVE   NOT AVBL
NORTH PHILA    LGT RAIN  39  36  89 N18G28    29.42S FOG
PHILADELPHIA   LGT RAIN  39  35  86 N15G25    29.43S
$$



USA.gov is the U.S. government's official web portal to all federal, state and local government web resources and services.